ALK195 VCBI-VIDP

Flight info

Callsign ALK195
Flight time N/A
Altitude 38000
Route ATETA1D ATETA T4 TTR W42 BIA/N0442F370 W57 LATID Q22 VIRAM W57 SAKRO Q22 HIA/N0445F380 W20 BPL Q24 PUKES W20 BUKLO Q24 BAVOX BAVOX7D
Aircraft A20N/M-SDE2E3FGHIRWXY/LB1

Departure

Time 2026-04-24 12:01
Airport Bandaranaike International Colombo Airport (VCBI)

Arrival

Time N/A
Airport Indira Gandhi International Airport (VIDP)
Time Latitude Longitude Altitude Speed Heading
2026-04-24 11:42 7.17507 79.88253 27 ft 0 kts 217°
2026-04-24 11:51 7.17509 79.88255 27 ft 2 kts 217°
2026-04-24 11:51 7.17522 79.88265 23 ft 2 kts 219°
2026-04-24 11:51 7.17535 79.88275 27 ft 2 kts 221°
2026-04-24 11:52 7.17547 79.88286 29 ft 2 kts 224°
2026-04-24 11:52 7.17559 79.88298 27 ft 2 kts 230°
2026-04-24 11:52 7.17568 79.88312 27 ft 2 kts 248°
2026-04-24 11:52 7.17570 79.88328 27 ft 2 kts 300°
2026-04-24 11:53 7.17561 79.88342 27 ft 2 kts 306°
2026-04-24 11:53 7.17551 79.88355 27 ft 2 kts 307°
2026-04-24 11:53 7.17547 79.88360 27 ft 0 kts 307°
2026-04-24 11:55 7.17552 79.88353 27 ft 3 kts 307°
2026-04-24 11:56 7.17574 79.88325 27 ft 7 kts 307°
2026-04-24 11:56 7.17612 79.88274 27 ft 11 kts 308°
2026-04-24 11:56 7.17682 79.88271 25 ft 12 kts 32°
2026-04-24 11:56 7.17760 79.88331 27 ft 16 kts 37°
2026-04-24 11:57 7.17859 79.88406 27 ft 19 kts 37°
2026-04-24 11:57 7.17973 79.88493 27 ft 22 kts 37°
2026-04-24 11:57 7.18103 79.88593 26 ft 25 kts 37°
2026-04-24 11:57 7.18243 79.88699 27 ft 22 kts 37°
2026-04-24 11:58 7.18371 79.88797 27 ft 24 kts 36°
2026-04-24 11:58 7.18512 79.88903 27 ft 26 kts 37°
2026-04-24 11:58 7.18664 79.89022 27 ft 29 kts 37°
2026-04-24 11:58 7.18798 79.89122 27 ft 23 kts 37°
2026-04-24 11:59 7.18934 79.89226 27 ft 26 kts 38°
2026-04-24 11:59 7.19083 79.89340 27 ft 28 kts 37°
2026-04-24 11:59 7.19168 79.89403 29 ft 9 kts 36°
2026-04-24 11:59 7.19223 79.89389 26 ft 11 kts 318°
2026-04-24 12:00 7.19274 79.89322 26 ft 13 kts 305°
2026-04-24 12:00 7.19250 79.89241 27 ft 14 kts 217°
2026-04-24 12:00 7.19240 79.89234 27 ft 1 kts 216°
2026-04-24 12:00 7.19071 79.89105 27 ft 66 kts 217°
2026-04-24 12:01 7.18538 79.88697 28 ft 124 kts 217°
2026-04-24 12:01 7.17741 79.88085 40 ft 165 kts 217°
2026-04-24 12:01 7.16852 79.87402 692 ft 153 kts 216°
2026-04-24 12:01 7.16001 79.86741 1286 ft 155 kts 218°
2026-04-24 12:02 7.15268 79.85911 1791 ft 166 kts 235°
2026-04-24 12:02 7.14829 79.84757 2097 ft 190 kts 262°
2026-04-24 12:02 7.15089 79.83388 2367 ft 214 kts 292°
2026-04-24 12:02 7.15776 79.81974 2623 ft 237 kts 296°
2026-04-24 12:03 7.16743 79.80523 2992 ft 259 kts 317°
2026-04-24 12:03 7.18336 79.79659 3745 ft 263 kts 348°
2026-04-24 12:03 7.20113 79.79672 4731 ft 259 kts 17°
2026-04-24 12:03 7.21690 79.80508 5726 ft 258 kts 38°
2026-04-24 12:04 7.23159 79.81645 6419 ft 272 kts 39°
2026-04-24 12:04 7.24668 79.82829 7265 ft 277 kts 39°
2026-04-24 12:04 7.26201 79.84026 8137 ft 281 kts 39°
2026-04-24 12:04 7.27751 79.85227 8970 ft 287 kts 38°
2026-04-24 12:05 7.29373 79.86478 9813 ft 292 kts 38°
2026-04-24 12:05 7.31004 79.87733 10493 ft 303 kts 38°
2026-04-24 12:05 7.32724 79.89055 10775 ft 326 kts 38°
2026-04-24 12:05 7.34663 79.90383 11087 ft 346 kts 27°
2026-04-24 12:06 7.36944 79.91212 11808 ft 351 kts 13°
2026-04-24 12:06 7.39393 79.91457 12559 ft 357 kts
2026-04-24 12:06 7.41892 79.91517 13291 ft 361 kts
2026-04-24 12:06 7.44427 79.91579 13973 ft 366 kts
2026-04-24 12:07 7.46986 79.91644 14645 ft 369 kts
2026-04-24 12:07 7.49537 79.91710 15280 ft 372 kts
2026-04-24 12:07 7.52146 79.91778 15917 ft 376 kts
2026-04-24 12:07 7.54785 79.91848 16535 ft 380 kts
2026-04-24 12:08 7.57410 79.91917 17138 ft 383 kts
2026-04-24 12:08 7.60098 79.91988 17722 ft 387 kts
2026-04-24 12:08 7.62809 79.92060 18272 ft 391 kts
2026-04-24 12:08 7.65537 79.92132 18826 ft 393 kts
2026-04-24 12:09 7.68289 79.92205 19396 ft 395 kts
2026-04-24 12:09 7.71045 79.92279 19919 ft 397 kts
2026-04-24 12:09 7.73816 79.92354 20462 ft 400 kts
2026-04-24 12:09 7.76570 79.92429 20994 ft 402 kts
2026-04-24 12:10 7.79381 79.92505 21538 ft 404 kts
2026-04-24 12:10 7.82203 79.92581 22075 ft 407 kts
2026-04-24 12:10 7.85054 79.92628 22613 ft 410 kts
2026-04-24 12:11 7.90751 79.91839 23627 ft 417 kts 351°
2026-04-24 12:11 7.93620 79.91278 24012 ft 420 kts 351°
2026-04-24 12:11 7.96464 79.90728 24400 ft 424 kts 351°
2026-04-24 12:11 7.99388 79.90166 24791 ft 427 kts 351°
2026-04-24 12:12 8.02326 79.89600 25194 ft 430 kts 351°
2026-04-24 12:12 8.05243 79.89037 25585 ft 433 kts 351°
2026-04-24 12:12 8.08247 79.88457 25972 ft 436 kts 350°
2026-04-24 12:12 8.11203 79.87887 26324 ft 438 kts 350°
2026-04-24 12:13 8.14207 79.87307 26690 ft 441 kts 350°
2026-04-24 12:13 8.17234 79.86722 27035 ft 444 kts 350°
2026-04-24 12:13 8.20283 79.86132 27387 ft 447 kts 349°
2026-04-24 12:13 8.23268 79.85204 27713 ft 452 kts 338°
2026-04-24 12:14 8.26169 79.83945 28031 ft 455 kts 338°
2026-04-24 12:14 8.29086 79.82673 28368 ft 457 kts 338°
2026-04-24 12:14 8.32016 79.81389 28672 ft 460 kts 338°
2026-04-24 12:14 8.34967 79.80091 28994 ft 463 kts 338°
2026-04-24 12:15 8.37936 79.78782 29293 ft 466 kts 337°
2026-04-24 12:15 8.40915 79.77467 29597 ft 468 kts 337°
2026-04-24 12:15 8.43913 79.76144 29891 ft 471 kts 337°
2026-04-24 12:15 8.46890 79.74830 30140 ft 474 kts 337°
2026-04-24 12:16 8.49924 79.73491 30402 ft 476 kts 337°
2026-04-24 12:16 8.52979 79.72143 30676 ft 479 kts 337°
2026-04-24 12:16 8.56042 79.70791 30946 ft 481 kts 336°
2026-04-24 12:16 8.59122 79.69431 31287 ft 482 kts 336°
2026-04-24 12:17 8.62195 79.68074 31677 ft 481 kts 336°
2026-04-24 12:17 8.65225 79.66737 32050 ft 480 kts 335°
2026-04-24 12:17 8.68285 79.65386 32462 ft 478 kts 335°
2026-04-24 12:17 8.71326 79.64043 32861 ft 477 kts 335°
2026-04-24 12:18 8.74383 79.62692 33260 ft 475 kts 335°
2026-04-24 12:18 8.77371 79.61371 33647 ft 473 kts 335°
2026-04-24 12:18 8.80393 79.60034 33965 ft 472 kts 335°
2026-04-24 12:18 8.83416 79.58696 34235 ft 472 kts 335°
2026-04-24 12:19 8.86419 79.57367 34499 ft 472 kts 335°
2026-04-24 12:19 8.89456 79.56079 34750 ft 473 kts 340°
2026-04-24 12:19 8.92620 79.55318 34975 ft 475 kts 352°
2026-04-24 12:19 8.95929 79.55219 35202 ft 478 kts
2026-04-24 12:20 8.99251 79.55803 35426 ft 480 kts 14°
2026-04-24 12:20 9.02419 79.56741 35647 ft 481 kts 17°
2026-04-24 12:20 9.05625 79.57747 35875 ft 481 kts 16°
2026-04-24 12:20 9.08832 79.58707 36101 ft 482 kts 15°
2026-04-24 12:21 9.12066 79.59620 36316 ft 482 kts 14°
2026-04-24 12:21 9.15319 79.60503 36552 ft 483 kts 14°
2026-04-24 12:21 9.18566 79.61366 36778 ft 483 kts 14°
2026-04-24 12:21 9.21824 79.62227 36996 ft 484 kts 14°
2026-04-24 12:22 9.25049 79.63077 37199 ft 484 kts 14°
2026-04-24 12:22 9.28314 79.63947 37411 ft 485 kts 15°
2026-04-24 12:22 9.31509 79.65081 37607 ft 486 kts 23°
2026-04-24 12:22 9.34547 79.66601 37783 ft 487 kts 30°
2026-04-24 12:23 9.37428 79.68406 37790 ft 487 kts 32°
2026-04-24 12:23 9.43172 79.72059 37791 ft 486 kts 32°
2026-04-24 12:24 9.48998 79.75446 37789 ft 486 kts 21°
2026-04-24 12:24 9.52226 79.76431 37799 ft 484 kts
2026-04-24 12:24 9.55574 79.76751 37802 ft 481 kts 356°
2026-04-24 12:24 9.58885 79.76395 37795 ft 476 kts 344°
2026-04-24 12:25 9.62024 79.75386 37801 ft 471 kts 332°
2026-04-24 12:25 9.64860 79.73770 37794 ft 465 kts 320°
2026-04-24 12:25 9.67313 79.71668 37795 ft 461 kts 313°
2026-04-24 12:26 9.72030 79.67332 37799 ft 460 kts 314°
2026-04-24 12:26 9.76808 79.63015 37802 ft 459 kts 314°
2026-04-24 12:27 9.81572 79.58726 37800 ft 459 kts 314°
2026-04-24 12:27 9.86351 79.54423 37797 ft 458 kts 314°
2026-04-24 12:28 9.91111 79.50134 37793 ft 457 kts 314°
2026-04-24 12:28 9.95867 79.45846 37804 ft 457 kts 314°
2026-04-24 12:29 10.00606 79.41571 37797 ft 458 kts 314°
2026-04-24 12:29 10.05423 79.37330 37798 ft 461 kts 321°
2026-04-24 12:29 10.08221 79.35688 37805 ft 467 kts 334°
2026-04-24 12:30 10.11328 79.34653 37799 ft 472 kts 346°
2026-04-24 12:30 10.14601 79.34277 37794 ft 476 kts 358°
2026-04-24 12:30 10.17871 79.34572 37793 ft 479 kts 10°
2026-04-24 12:30 10.21080 79.35543 37808 ft 481 kts 22°
2026-04-24 12:31 10.24034 79.37147 37805 ft 482 kts 34°
2026-04-24 12:31 10.26610 79.39318 37793 ft 481 kts 47°
2026-04-24 12:31 10.28678 79.41929 37802 ft 480 kts 59°
2026-04-24 12:32 10.31545 79.48020 37801 ft 478 kts 66°
2026-04-24 12:32 10.34309 79.52898 37795 ft 479 kts 51°
2026-04-24 12:32 10.36624 79.55347 37810 ft 480 kts 39°
2026-04-24 12:33 10.39377 79.57281 37802 ft 480 kts 27°
2026-04-24 12:33 10.42403 79.58603 37794 ft 479 kts 15°
2026-04-24 12:33 10.45657 79.59294 37799 ft 476 kts